SWA3059 KSTL-KCMH

Flight info

Callsign SWA3059
Flight time 0h 58m
Altitude 37000
Route JHART7 KELLY JADUB DUBLN1
Aircraft B738/M-SADE2E3GIJ4RW/LB1D1

Departure

Time 2026-05-08 23:50
Airport St. Louis Lambert International Airport (KSTL)

Arrival

Time 2026-05-09 00:48
Airport John Glenn Columbus International Airport (KCMH)
Time Latitude Longitude Altitude Speed Heading
2026-05-08 23:37 38.73822 -90.35589 548 ft 0 kts 210°
2026-05-08 23:41 38.73831 -90.35583 548 ft 2 kts 210°
2026-05-08 23:41 38.73844 -90.35574 548 ft 2 kts 210°
2026-05-08 23:41 38.73857 -90.35564 547 ft 2 kts 191°
2026-05-08 23:42 38.73872 -90.35566 547 ft 2 kts 158°
2026-05-08 23:42 38.73885 -90.35577 547 ft 2 kts 126°
2026-05-08 23:42 38.73888 -90.35583 547 ft 0 kts 116°
2026-05-08 23:45 38.73886 -90.35578 547 ft 1 kts 119°
2026-05-08 23:45 38.73876 -90.35559 547 ft 3 kts 123°
2026-05-08 23:45 38.73859 -90.35525 547 ft 5 kts 117°
2026-05-08 23:45 38.73871 -90.35476 548 ft 7 kts 36°
2026-05-08 23:46 38.73921 -90.35435 549 ft 9 kts 32°
2026-05-08 23:46 38.73930 -90.35381 549 ft 8 kts 123°
2026-05-08 23:46 38.73895 -90.35311 550 ft 10 kts 123°
2026-05-08 23:46 38.73853 -90.35228 553 ft 12 kts 122°
2026-05-08 23:47 38.73797 -90.35116 557 ft 16 kts 122°
2026-05-08 23:47 38.73732 -90.34985 563 ft 17 kts 122°
2026-05-08 23:47 38.73671 -90.34860 572 ft 15 kts 123°
2026-05-08 23:47 38.73665 -90.34761 578 ft 9 kts 47°
2026-05-08 23:48 38.73714 -90.34719 578 ft 7 kts 33°
2026-05-08 23:48 38.73755 -90.34686 580 ft 6 kts 33°
2026-05-08 23:48 38.73797 -90.34685 579 ft 6 kts 311°
2026-05-08 23:48 38.73802 -90.34695 578 ft 0 kts 302°
2026-05-08 23:49 38.73811 -90.34714 577 ft 9 kts 302°
2026-05-08 23:49 38.73956 -90.35007 558 ft 75 kts 302°
2026-05-08 23:49 38.74355 -90.35812 545 ft 136 kts 302°
2026-05-08 23:50 38.74941 -90.37026 663 ft 172 kts 303°
2026-05-08 23:50 38.75555 -90.38271 1338 ft 170 kts 308°
2026-05-08 23:50 38.76553 -90.39105 1960 ft 177 kts 337°
2026-05-08 23:50 38.77733 -90.39573 2466 ft 185 kts 338°
2026-05-08 23:51 38.79004 -90.40087 2872 ft 199 kts 338°
2026-05-08 23:51 38.80395 -90.40685 3250 ft 219 kts 337°
2026-05-08 23:51 38.81897 -90.41320 3682 ft 238 kts 342°
2026-05-08 23:51 38.83624 -90.41440 4184 ft 260 kts
2026-05-08 23:52 38.85370 -90.40608 4742 ft 276 kts 24°
2026-05-08 23:52 38.87029 -90.39280 5372 ft 287 kts 34°
2026-05-08 23:52 38.88492 -90.37557 6065 ft 295 kts 51°
2026-05-08 23:52 38.89446 -90.35195 6789 ft 300 kts 71°
2026-05-08 23:53 38.90033 -90.32621 7479 ft 304 kts 81°
2026-05-08 23:53 38.90074 -90.29915 8160 ft 305 kts 102°
2026-05-08 23:53 38.89690 -90.27286 8884 ft 306 kts 105°
2026-05-08 23:53 38.89272 -90.24585 9560 ft 310 kts 105°
2026-05-08 23:54 38.88874 -90.21817 10210 ft 316 kts 104°
2026-05-08 23:54 38.88488 -90.19000 10647 ft 329 kts 104°
2026-05-08 23:54 38.88084 -90.16013 11008 ft 345 kts 104°
2026-05-08 23:55 38.87234 -90.09706 11748 ft 375 kts 103°
2026-05-08 23:55 38.86776 -90.06301 12071 ft 392 kts 103°
2026-05-08 23:55 38.86304 -90.02808 12359 ft 409 kts 102°
2026-05-08 23:55 38.85813 -89.99161 12913 ft 417 kts 102°
2026-05-08 23:56 38.85316 -89.95475 13494 ft 425 kts 102°
2026-05-08 23:56 38.84808 -89.91711 14281 ft 429 kts 102°
2026-05-08 23:56 38.84308 -89.87990 14964 ft 431 kts 102°
2026-05-08 23:56 38.83797 -89.84189 15759 ft 433 kts 101°
2026-05-08 23:57 38.83287 -89.80408 16515 ft 437 kts 101°
2026-05-08 23:57 38.82765 -89.76554 17133 ft 442 kts 101°
2026-05-08 23:57 38.82240 -89.72679 17758 ft 446 kts 101°
2026-05-08 23:57 38.81702 -89.68728 18466 ft 449 kts 101°
2026-05-08 23:58 38.81159 -89.64745 19109 ft 453 kts 100°
2026-05-08 23:58 38.80615 -89.60770 19759 ft 456 kts 100°
2026-05-08 23:58 38.80088 -89.56760 20273 ft 462 kts 99°
2026-05-08 23:58 38.79744 -89.52676 20817 ft 467 kts 93°
2026-05-08 23:59 38.79740 -89.48487 21457 ft 470 kts 86°
2026-05-08 23:59 38.80019 -89.44328 21963 ft 474 kts 82°
2026-05-08 23:59 38.80467 -89.40123 22487 ft 479 kts 80°
2026-05-08 23:59 38.81001 -89.35927 23038 ft 481 kts 79°
2026-05-09 00:00 38.81583 -89.31667 23487 ft 487 kts 79°
2026-05-09 00:00 38.82182 -89.27362 23969 ft 492 kts 79°
2026-05-09 00:00 38.82772 -89.23069 24494 ft 495 kts 79°
2026-05-09 00:00 38.83361 -89.18702 24966 ft 499 kts 79°
2026-05-09 00:01 38.83939 -89.14304 25440 ft 503 kts 80°
2026-05-09 00:01 38.84510 -89.09855 25943 ft 506 kts 81°
2026-05-09 00:01 38.85064 -89.05458 26413 ft 509 kts 81°
2026-05-09 00:01 38.85622 -89.00964 26854 ft 512 kts 81°
2026-05-09 00:02 38.86184 -88.96420 27245 ft 517 kts 81°
2026-05-09 00:02 38.86742 -88.91898 27653 ft 521 kts 81°
2026-05-09 00:02 38.87308 -88.87268 28060 ft 525 kts 81°
2026-05-09 00:02 38.87879 -88.82626 28527 ft 527 kts 81°
2026-05-09 00:03 38.88455 -88.77934 29051 ft 528 kts 81°
2026-05-09 00:03 38.89027 -88.73264 29533 ft 529 kts 81°
2026-05-09 00:03 38.89594 -88.68642 30104 ft 527 kts 81°
2026-05-09 00:03 38.90163 -88.63975 30560 ft 528 kts 81°
2026-05-09 00:04 38.90732 -88.59297 31048 ft 528 kts 81°
2026-05-09 00:04 38.91297 -88.54695 31457 ft 529 kts 81°
2026-05-09 00:04 38.91963 -88.50017 31992 ft 527 kts 77°
2026-05-09 00:04 38.92831 -88.45525 32573 ft 522 kts 73°
2026-05-09 00:05 38.93877 -88.41111 33132 ft 518 kts 71°
2026-05-09 00:05 38.95047 -88.36710 33527 ft 518 kts 69°
2026-05-09 00:05 38.96276 -88.32364 33846 ft 520 kts 69°
2026-05-09 00:05 38.97543 -88.27994 34081 ft 522 kts 68°
2026-05-09 00:06 38.98834 -88.23573 34342 ft 525 kts 68°
2026-05-09 00:06 39.00097 -88.19223 34540 ft 527 kts 68°
2026-05-09 00:06 39.01366 -88.14798 34723 ft 528 kts 69°
2026-05-09 00:06 39.02626 -88.10365 34884 ft 530 kts 69°
2026-05-09 00:07 39.03884 -88.05901 35053 ft 530 kts 69°
2026-05-09 00:07 39.05135 -88.01426 35217 ft 531 kts 69°
2026-05-09 00:07 39.06370 -87.96979 35391 ft 532 kts 69°
2026-05-09 00:07 39.07604 -87.92521 35645 ft 530 kts 69°
2026-05-09 00:08 39.08843 -87.88023 35926 ft 528 kts 68°
2026-05-09 00:08 39.10050 -87.83630 36184 ft 528 kts 69°
2026-05-09 00:08 39.11287 -87.79122 36422 ft 528 kts 68°
2026-05-09 00:08 39.12505 -87.74681 36654 ft 528 kts 69°
2026-05-09 00:09 39.13728 -87.70215 36825 ft 529 kts 68°
2026-05-09 00:09 39.16182 -87.61241 36857 ft 538 kts 68°
2026-05-09 00:10 39.18673 -87.52100 36856 ft 544 kts 69°
2026-05-09 00:10 39.21167 -87.42901 36843 ft 541 kts 69°
2026-05-09 00:11 39.23637 -87.33759 36859 ft 543 kts 69°
2026-05-09 00:11 39.26111 -87.24571 36852 ft 545 kts 69°
2026-05-09 00:12 39.28586 -87.15347 36855 ft 544 kts 69°
2026-05-09 00:12 39.31057 -87.06116 36847 ft 545 kts 69°
2026-05-09 00:13 39.33511 -86.96909 36845 ft 545 kts 69°
2026-05-09 00:13 39.35982 -86.87600 36861 ft 545 kts 69°
2026-05-09 00:14 39.38413 -86.78403 36853 ft 543 kts 69°
2026-05-09 00:14 39.41002 -86.69171 36847 ft 543 kts 65°
2026-05-09 00:15 39.44310 -86.60470 36856 ft 538 kts 56°
2026-05-09 00:15 39.48108 -86.52238 36854 ft 536 kts 53°
2026-05-09 00:16 39.52103 -86.44070 36862 ft 537 kts 52°
2026-05-09 00:16 39.56054 -86.35918 36861 ft 535 kts 53°
2026-05-09 00:17 39.59953 -86.27708 36875 ft 535 kts 54°
2026-05-09 00:17 39.63823 -86.19463 36881 ft 536 kts 54°
2026-05-09 00:18 39.67692 -86.11157 36882 ft 537 kts 54°
2026-05-09 00:18 39.71547 -86.02852 36873 ft 534 kts 54°
2026-05-09 00:19 39.75406 -85.94519 36807 ft 537 kts 54°
2026-05-09 00:19 39.77309 -85.90406 36555 ft 537 kts 54°
2026-05-09 00:19 39.79229 -85.86251 36318 ft 534 kts 54°
2026-05-09 00:19 39.81143 -85.82101 36073 ft 531 kts 54°
2026-05-09 00:20 39.83041 -85.77978 35857 ft 532 kts 54°
2026-05-09 00:20 39.84930 -85.73875 35676 ft 531 kts 54°
2026-05-09 00:20 39.86839 -85.69722 35493 ft 531 kts 54°
2026-05-09 00:20 39.88707 -85.65654 35305 ft 531 kts 53°
2026-05-09 00:21 39.90614 -85.61498 35138 ft 532 kts 54°
2026-05-09 00:21 39.92504 -85.57372 34949 ft 531 kts 54°
2026-05-09 00:21 39.94404 -85.53217 34765 ft 531 kts 54°
2026-05-09 00:21 39.96272 -85.49128 34559 ft 532 kts 54°
2026-05-09 00:22 39.98167 -85.44974 34370 ft 533 kts 54°
2026-05-09 00:22 40.00018 -85.40848 34139 ft 533 kts 56°
2026-05-09 00:22 40.01749 -85.36552 33884 ft 532 kts 60°
2026-05-09 00:22 40.03285 -85.32140 33647 ft 533 kts 64°
2026-05-09 00:23 40.04603 -85.27668 33400 ft 534 kts 68°
2026-05-09 00:23 40.05783 -85.23060 33141 ft 534 kts 70°
2026-05-09 00:23 40.06873 -85.18410 32913 ft 535 kts 71°
2026-05-09 00:23 40.07910 -85.13779 32665 ft 533 kts 72°
2026-05-09 00:24 40.08929 -85.09146 32419 ft 533 kts 71°
2026-05-09 00:24 40.09956 -85.04471 32180 ft 533 kts 72°
2026-05-09 00:24 40.10978 -84.99830 31923 ft 532 kts 71°
2026-05-09 00:24 40.12006 -84.95197 31657 ft 529 kts 71°
2026-05-09 00:25 40.13031 -84.90602 31368 ft 526 kts 71°
2026-05-09 00:25 40.14063 -84.85994 31060 ft 521 kts 71°
2026-05-09 00:25 40.15076 -84.81482 30764 ft 515 kts 70°
2026-05-09 00:25 40.16077 -84.77027 30464 ft 512 kts 70°
2026-05-09 00:26 40.17076 -84.72592 30087 ft 510 kts 70°
2026-05-09 00:26 40.18081 -84.68122 29671 ft 507 kts 70°
2026-05-09 00:26 40.19067 -84.63734 29257 ft 503 kts 70°
2026-05-09 00:26 40.20052 -84.59346 28844 ft 500 kts 71°
2026-05-09 00:27 40.21020 -84.55025 28416 ft 497 kts 71°
2026-05-09 00:27 40.21989 -84.50687 27763 ft 498 kts 70°
2026-05-09 00:27 40.22959 -84.46343 27089 ft 497 kts 70°
2026-05-09 00:27 40.23930 -84.41991 26439 ft 495 kts 71°
2026-05-09 00:28 40.24876 -84.37736 25795 ft 493 kts 70°
2026-05-09 00:28 40.25829 -84.33453 25147 ft 490 kts 71°
2026-05-09 00:28 40.26783 -84.29157 24545 ft 486 kts 71°
2026-05-09 00:28 40.27717 -84.24947 23972 ft 482 kts 72°
2026-05-09 00:29 40.28647 -84.20728 23405 ft 478 kts 71°
2026-05-09 00:29 40.29552 -84.16617 22859 ft 475 kts 71°
2026-05-09 00:29 40.30471 -84.12446 22301 ft 470 kts 71°
2026-05-09 00:29 40.31365 -84.08384 21754 ft 466 kts 71°
2026-05-09 00:30 40.32249 -84.04354 21206 ft 462 kts 71°
2026-05-09 00:30 40.33134 -84.00310 20654 ft 458 kts 71°
2026-05-09 00:30 40.34002 -83.96332 20108 ft 454 kts 71°
2026-05-09 00:30 40.34861 -83.92389 19543 ft 450 kts 71°
2026-05-09 00:31 40.35713 -83.88471 18991 ft 445 kts 71°
2026-05-09 00:31 40.36559 -83.84570 18434 ft 441 kts 71°
2026-05-09 00:31 40.37398 -83.80698 17875 ft 437 kts 71°
2026-05-09 00:31 40.38214 -83.76917 17339 ft 432 kts 71°
2026-05-09 00:32 40.39032 -83.73126 16910 ft 425 kts 71°
2026-05-09 00:32 40.39819 -83.69467 16545 ft 417 kts 71°
2026-05-09 00:32 40.40604 -83.65806 16166 ft 409 kts 71°
2026-05-09 00:32 40.41362 -83.62273 15804 ft 402 kts 71°
2026-05-09 00:33 40.42106 -83.58801 15440 ft 395 kts 71°
2026-05-09 00:33 40.42849 -83.55330 15067 ft 389 kts 71°
2026-05-09 00:33 40.43480 -83.51899 14695 ft 387 kts 78°
2026-05-09 00:33 40.43655 -83.48383 14316 ft 386 kts 95°
2026-05-09 00:34 40.42949 -83.45008 13947 ft 382 kts 119°
2026-05-09 00:34 40.41550 -83.42092 13584 ft 377 kts 129°
2026-05-09 00:34 40.39967 -83.39384 13204 ft 373 kts 132°
2026-05-09 00:34 40.38345 -83.36736 12815 ft 369 kts 132°
2026-05-09 00:35 40.36774 -83.34144 12433 ft 366 kts 132°
2026-05-09 00:35 40.35218 -83.31516 12046 ft 363 kts 131°
2026-05-09 00:35 40.33696 -83.28884 11672 ft 360 kts 131°
2026-05-09 00:35 40.32204 -83.26270 11297 ft 355 kts 131°
2026-05-09 00:36 40.30611 -83.23843 10921 ft 346 kts 140°
2026-05-09 00:36 40.28847 -83.21762 10546 ft 338 kts 146°
2026-05-09 00:36 40.27023 -83.19904 10169 ft 333 kts 148°
2026-05-09 00:36 40.25182 -83.18108 9874 ft 326 kts 149°
2026-05-09 00:37 40.23400 -83.16354 9619 ft 318 kts 148°
2026-05-09 00:37 40.21645 -83.14588 9354 ft 311 kts 147°
2026-05-09 00:37 40.20050 -83.12725 9099 ft 309 kts 137°
2026-05-09 00:37 40.18758 -83.10524 8987 ft 304 kts 128°
2026-05-09 00:38 40.17641 -83.08157 8985 ft 307 kts 125°
2026-05-09 00:38 40.16548 -83.05759 8854 ft 308 kts 126°
2026-05-09 00:38 40.15401 -83.03403 8632 ft 304 kts 128°
2026-05-09 00:38 40.14227 -83.01144 8296 ft 302 kts 129°
2026-05-09 00:39 40.13020 -82.98870 7919 ft 301 kts 130°
2026-05-09 00:39 40.11841 -82.96654 7543 ft 299 kts 130°
2026-05-09 00:39 40.10655 -82.94437 7172 ft 297 kts 131°
2026-05-09 00:39 40.09502 -82.92204 6797 ft 297 kts 126°
2026-05-09 00:40 40.08707 -82.89696 6419 ft 303 kts 106°
2026-05-09 00:40 40.08488 -82.86980 6136 ft 301 kts 96°
2026-05-09 00:40 40.08399 -82.84283 5989 ft 290 kts 96°
2026-05-09 00:41 40.08207 -82.79307 5995 ft 260 kts 96°
2026-05-09 00:41 40.08119 -82.76984 6003 ft 256 kts 97°
2026-05-09 00:41 40.08033 -82.74638 6002 ft 255 kts 97°
2026-05-09 00:41 40.07950 -82.72322 6002 ft 257 kts 96°
2026-05-09 00:42 40.07868 -82.69977 5842 ft 259 kts 96°
2026-05-09 00:42 40.07783 -82.67658 5594 ft 257 kts 96°
2026-05-09 00:42 40.07696 -82.65346 5349 ft 254 kts 98°
2026-05-09 00:42 40.07261 -82.63186 5094 ft 243 kts 126°
2026-05-09 00:43 40.06139 -82.61647 4851 ft 226 kts 159°
2026-05-09 00:43 40.04694 -82.61130 4651 ft 214 kts 183°
2026-05-09 00:43 40.03208 -82.61133 4453 ft 212 kts 187°
2026-05-09 00:43 40.01803 -82.61504 4239 ft 201 kts 212°
2026-05-09 00:44 40.00842 -82.62698 4060 ft 189 kts 238°
2026-05-09 00:44 40.00229 -82.64157 3990 ft 180 kts 242°
2026-05-09 00:44 39.99661 -82.65604 3979 ft 178 kts 243°
2026-05-09 00:44 39.99179 -82.67096 3831 ft 179 kts 254°
2026-05-09 00:45 39.99077 -82.68705 3707 ft 180 kts 268°
2026-05-09 00:45 39.99155 -82.70351 3585 ft 180 kts 270°
2026-05-09 00:45 39.99241 -82.71994 3378 ft 185 kts 270°
2026-05-09 00:45 39.99336 -82.73679 3015 ft 190 kts 271°
2026-05-09 00:46 39.99437 -82.75391 2702 ft 191 kts 271°
2026-05-09 00:46 39.99535 -82.77063 2449 ft 178 kts 272°
2026-05-09 00:46 39.99626 -82.78621 2209 ft 165 kts 271°
2026-05-09 00:46 39.99707 -82.80048 2020 ft 151 kts 272°
2026-05-09 00:47 39.99783 -82.81359 1827 ft 145 kts 272°
2026-05-09 00:47 39.99854 -82.82632 1613 ft 141 kts 273°
2026-05-09 00:47 39.99933 -82.83938 1427 ft 145 kts 272°
2026-05-09 00:47 40.00002 -82.85237 1235 ft 146 kts 273°
2026-05-09 00:48 40.00084 -82.86588 1031 ft 149 kts 274°
2026-05-09 00:48 40.00162 -82.87919 842 ft 148 kts 273°
2026-05-09 00:48 40.00228 -82.89108 815 ft 97 kts 275°
2026-05-09 00:48 40.00260 -82.89696 816 ft 45 kts 274°
2026-05-09 00:49 40.00283 -82.90108 816 ft 39 kts 274°
2026-05-09 00:49 40.00285 -82.90356 816 ft 19 kts 244°
2026-05-09 00:49 40.00203 -82.90363 816 ft 14 kts 97°
2026-05-09 00:49 40.00194 -82.90227 816 ft 14 kts 95°
2026-05-09 00:50 40.00187 -82.90095 816 ft 14 kts 94°
2026-05-09 00:50 40.00179 -82.89967 816 ft 14 kts 94°
2026-05-09 00:50 40.00172 -82.89828 816 ft 16 kts 94°
2026-05-09 00:50 40.00163 -82.89671 816 ft 17 kts 94°
2026-05-09 00:51 40.00154 -82.89514 816 ft 17 kts 94°
2026-05-09 00:51 40.00146 -82.89359 816 ft 16 kts 94°
2026-05-09 00:51 40.00137 -82.89208 815 ft 16 kts 94°
2026-05-09 00:51 40.00128 -82.89057 814 ft 17 kts 94°
2026-05-09 00:52 40.00119 -82.88895 813 ft 17 kts 94°
2026-05-09 00:52 40.00111 -82.88766 813 ft 13 kts 94°
2026-05-09 00:52 40.00099 -82.88660 813 ft 8 kts 127°
2026-05-09 00:52 40.00044 -82.88638 813 ft 7 kts 148°
2026-05-09 00:53 40.00027 -82.88572 813 ft 6 kts 97°
2026-05-09 00:53 40.00000 -82.88560 813 ft 4 kts 186°
2026-05-09 00:53 39.99974 -82.88563 813 ft 2 kts 185°
2026-05-09 00:53 39.99971 -82.88563 813 ft 0 kts 185°